Temp
64 65 65 65 65 65 65 65 65 65 65 65 65 65 65 65 65 63 61 68 71 71 69 71 72 71 66 61 61 58 49 45 51 52 56 60 60 61 62 63 59 60 60 64 69
64 65 65 65 65 65 65 65 65 64 64 65 65 65 65 65 63 60 69 72 73 71 70 69 65 68 63 59 58 54 48 52 58 56 58 60 62 63 61 58 56 56 61 68 67
62 64 65 65 65 64 64 64 64 63 64 64 64 64 64 64 60 60 71 72 72 70 73 72 70 68 61 57 55 54 52 55 59 60 62 62 61 61 58 53 58 57 60 64 64
61 62 64 64 64 64 64 64 64 63 63 63 64 64 63 62 49 63 69 72 71 72 70 69 67 61 58 58 57 51 60 57 60 61 61 61 62 59 59 61 65 63 65 64 64
60 59 62 63 63 64 64 64 64 63 62 63 63 63 59 55 55 65 68 69 68 68 67 66 62 60 56 60 59 54 56 57 59 60 58 62 58 59 59 59 61 64 63 63 64
59 59 59 62 63 64 64 64 63 63 63 63 62 63 55 48 65 66 65 66 67 66 65 67 64 65 60 59 57 59 57 55 57 58 58 57 54 59 60 58 59 62 60 61 63
59 58 59 61 62 63 63 63 63 62 63 63 63 62 53 57 65 63 65 63 67 68 64 66 66 62 62 57 62 59 55 53 55 56 55 57 53 57 59 59 59 58 59 59 61
58 58 59 61 62 63 63 63 62 62 62 63 63 57 53 62 61 64 62 62 66 69 67 68 68 62 61 61 59 56 51 46 55 57 55 55 50 57 61 59 57 56 54 57 59
58 58 59 60 62 62 63 63 61 62 63 63 55 52 52 64 59 63 63 61 62 63 66 70 65 58 56 52 48 47 40 42 49 56 54 53 51 55 58 57 56 55 55 57 57
57 58 58 60 61 62 62 62 61 61 61 62 61 50 54 53 59 61 60 63 58 58 58 57 54 49 46 45 41 42 42 44 47 52 50 48 51 57 54 54 55 54 53 55 57
56 58 58 59 61 62 60 56 50 47 50 46 48 49 53 60 62 58 62 60 57 53 45 48 45 40 46 50 53 51 49 47 47 52 49 48 50 54 53 51 53 52 52 54 57
56 58 58 59 61 61 59 51 54 53 43 51 52 52 57 59 53 57 62 54 50 44 47 43 39 49 53 52 51 49 46 45 46 49 47 44 48 52 50 53 53 54 54 55 56
55 57 58 59 60 58 56 54 61 62 46 49 53 52 54 58 52 53 59 54 48 44 43 41 48 53 52 48 48 47 46 45 47 47 45 44 44 47 52 51 54 55 59 60 60
55 55 58 58 54 56 53 59 63 59 37 41 46 52 54 56 50 59 59 57 49 46 45 45 51 50 46 46 48 42 52 50 46 45 40 44 33 41 47 51 51 56 58 60 58
55 56 58 57 54 51 57 60 58 56 23 44 45 59 55 51 52 51 57 55 46 46 46 43 46 44 44 48 51 46 50 48 47 42 39 37 35 41 45 49 54 56 57 59 60
54 56 57 55 56 59 59 59 55 34 23 36 45 44 47 48 48 50 53 53 53 48 46 49 49 50 50 50 52 50 46 43 40 39 32 38 38 39 45 53 55 54 55 55 53
54 56 55 57 51 59 58 53 32 27 42 35 38 44 45 42 43 45 46 43 40 38 37 42 44 46 49 46 45 45 41 29 30 29 29 37 34 45 48 51 52 54 53 47 46
52 56 55 57 58 58 52 39 26 34 36 42 42 44 40 45 43 44 44 42 42 42 37 38 34 44 48 47 43 44 44 33 25 24 30 34 31 42 51 53 53 53 49 47 46
52 50 51 55 58 56 44 30 30 36 42 40 42 38 38 44 44 41 42 43 48 45 38 36 37 45 47 49 53 43 39 45 32 19 25 32 37 47 49 49 45 46 46 47 47
46 47 48 55 56 50 38 35 37 46 45 45 36 41 34 39 37 38 39 47 48 48 49 44 37 42 45 50 48 46 50 38 31 21 21 30 32 39 45 49 48 47 47 46 45
45 41 46 51 52 42 32 37 40 48 50 44 39 37 40 38 40 37 36 43 52 49 50 45 41 36 43 43 41 42 41 41 41 34 27 23 32 43 49 52 49 49 47 47 47
40 33 46 52 38 37 34 40 47 46 50 46 46 44 43 43 39 39 39 47 54 54 45 45 38 30 38 43 46 47 45 46 35 30 30 30 35 48 47 49 50 51 49 47 47
37 37 44 45 32 32 40 42 46 45 47 45 44 47 48 44 40 43 45 49 53 52 47 44 32 23 32 40 40 40 42 46 41 35 28 27 38 43 45 43 46 49 47 47 45
36 31 33 34 33 37 36 39 40 48 49 48 47 48 47 43 45 41 42 47 51 51 48 50 35 34 31 36 39 36 40 44 43 32 35 37 44 39 44 45 46 44 44 43 44
32 32 34 29 31 36 39 39 39 40 47 48 44 48 44 39 41 39 43 42 48 49 49 46 26 33 36 38 40 37 38 42 38 43 36 45 41 48 45 47 47 46 44 44 44
32 31 33 33 34 34 36 36 40 43 43 43 41 45 43 39 42 36 41 40 42 43 46 44 33 35 29 36 37 32 40 42 43 44 44 44 41 50 50 47 44 48 46 45 45
34 34 32 35 34 32 34 36 41 46 42 49 48 46 43 44 48 49 51 50 46 46 42 39 31 31 26 33 33 30 37 40 44 47 47 40 49 49 43 47 47 48 47 47 47
MSLP
1010.06 1010.35 1011.01 1011.50 1011.79 1012.32 1012.83 1013.20 1013.83 1014.21 1014.64 1015.11 1015.68 1016.12 1016.40 1016.36 1016.72 1016.81 1016.33 1015.42 1015.41 1015.31 1015.27 1015.32 1015.04 1015.17 1015.42 1016.08 1016.46 1016.88 1017.85 1017.81 1017.07 1016.82 1016.00 1015.72 1015.84 1015.84 1015.78 1016.22 1016.91 1017.25 1017.53 1017.57 1018.35
1009.26 1009.65 1010.37 1011.04 1011.36 1011.88 1012.44 1012.82 1013.17 1014.01 1014.59 1014.82 1015.14 1016.02 1016.07 1016.41 1016.49 1016.18 1015.06 1014.92 1015.13 1015.20 1015.36 1015.33 1015.34 1015.35 1015.80 1016.40 1016.71 1017.18 1017.61 1017.04 1016.04 1015.75 1015.35 1015.32 1015.39 1015.62 1016.06 1016.63 1017.31 1017.62 1017.57 1017.74 1018.44
1008.67 1008.94 1009.64 1010.35 1010.94 1011.47 1012.12 1012.42 1012.84 1013.58 1014.44 1014.86 1014.98 1015.46 1015.82 1016.39 1016.47 1015.01 1014.11 1014.71 1014.70 1015.09 1015.04 1015.11 1015.32 1015.49 1015.88 1016.42 1016.65 1016.88 1016.90 1016.41 1015.70 1015.37 1015.13 1015.06 1015.51 1015.57 1016.03 1016.85 1016.97 1017.41 1017.86 1018.31 1018.75
1008.50 1008.63 1008.94 1009.79 1010.41 1011.05 1011.66 1012.31 1012.60 1013.16 1014.16 1014.55 1015.00 1015.28 1015.80 1016.55 1015.72 1014.01 1013.88 1014.10 1014.49 1014.83 1015.20 1015.24 1015.41 1015.92 1016.27 1016.40 1016.35 1016.62 1016.20 1016.06 1015.65 1015.33 1015.06 1015.10 1015.21 1015.71 1015.87 1015.89 1015.92 1016.82 1017.18 1018.15 1018.75
1008.01 1008.64 1008.23 1009.03 1009.87 1010.57 1011.22 1011.99 1012.42 1012.93 1013.64 1014.34 1014.84 1015.14 1015.94 1016.15 1014.92 1013.68 1013.81 1013.97 1014.69 1014.86 1015.17 1015.27 1015.52 1015.71 1015.90 1015.79 1016.08 1016.46 1016.09 1015.88 1015.59 1015.39 1015.19 1015.23 1015.28 1015.59 1015.84 1015.68 1016.21 1017.08 1017.95 1018.21 1018.55
1007.87 1008.08 1007.77 1008.57 1009.33 1010.09 1010.84 1011.59 1012.31 1012.86 1013.39 1014.02 1014.71 1015.14 1015.74 1015.19 1013.72 1013.74 1013.98 1014.19 1014.63 1014.79 1015.05 1015.20 1015.17 1015.27 1015.82 1015.87 1015.92 1016.09 1016.15 1015.99 1015.62 1015.47 1015.48 1015.55 1015.61 1015.68 1015.85 1016.12 1016.85 1017.19 1017.96 1018.35 1018.42
1007.28 1007.73 1007.63 1008.16 1008.86 1009.49 1010.45 1011.28 1012.06 1012.85 1013.30 1013.74 1014.33 1014.96 1015.23 1013.57 1013.45 1013.72 1013.90 1014.24 1014.49 1014.42 1014.81 1014.91 1015.01 1015.12 1015.43 1015.86 1015.51 1016.24 1016.55 1016.20 1015.93 1015.65 1015.64 1015.68 1016.03 1015.80 1015.83 1016.48 1017.20 1017.67 1018.12 1018.37 1018.48
1007.09 1007.18 1007.15 1007.56 1008.37 1009.23 1010.02 1011.08 1011.98 1012.65 1013.43 1013.83 1014.48 1014.63 1014.40 1013.41 1013.60 1013.89 1014.06 1014.30 1014.43 1014.47 1014.40 1014.73 1014.97 1015.22 1015.48 1015.62 1016.01 1017.21 1016.92 1016.79 1016.09 1016.03 1015.93 1016.11 1016.08 1015.84 1016.06 1016.66 1017.50 1017.92 1018.22 1018.39 1018.30
1006.90 1006.80 1006.66 1007.14 1007.93 1008.91 1009.67 1010.77 1011.95 1012.91 1013.58 1014.00 1014.72 1014.14 1014.23 1013.58 1013.93 1013.64 1013.73 1014.31 1014.48 1014.76 1014.50 1014.79 1015.28 1015.76 1016.03 1016.07 1016.82 1017.00 1016.57 1016.76 1016.59 1016.33 1016.32 1016.56 1016.37 1015.93 1016.19 1016.85 1017.50 1017.83 1018.10 1018.05 1017.99
1006.31 1006.20 1006.01 1006.73 1007.53 1008.51 1009.66 1010.89 1012.19 1013.19 1013.82 1014.12 1014.31 1014.50 1013.75 1013.38 1013.67 1013.53 1013.78 1014.16 1014.61 1015.05 1015.23 1015.37 1016.06 1016.43 1016.67 1016.52 1016.61 1016.90 1016.89 1016.72 1016.74 1016.73 1016.76 1016.95 1016.69 1016.21 1016.60 1016.94 1017.13 1017.67 1017.89 1018.04 1017.65
1006.04 1005.40 1005.72 1006.29 1007.19 1007.95 1009.68 1010.98 1012.83 1014.15 1013.11 1012.70 1012.59 1012.66 1012.42 1012.80 1013.35 1013.56 1013.82 1014.41 1014.95 1015.57 1015.76 1016.18 1016.50 1016.50 1016.82 1016.63 1016.35 1016.43 1016.53 1016.69 1016.69 1016.80 1017.00 1017.10 1016.88 1016.67 1016.62 1016.99 1017.25 1017.49 1017.64 1017.35 1016.82
1005.64 1005.32 1005.61 1006.03 1006.91 1007.63 1008.75 1009.27 1009.09 1009.24 1011.98 1012.54 1012.53 1012.28 1012.26 1012.26 1013.39 1013.66 1013.85 1014.50 1015.35 1016.06 1016.07 1016.85 1016.52 1016.38 1016.51 1016.56 1016.54 1016.50 1016.67 1016.85 1017.35 1017.14 1017.45 1017.49 1017.24 1016.69 1016.74 1016.48 1016.34 1016.72 1016.64 1016.20 1016.03
1005.71 1004.96 1005.08 1005.60 1006.39 1007.73 1007.73 1008.50 1008.93 1008.88 1010.87 1012.42 1012.40 1012.15 1012.03 1012.46 1012.95 1013.48 1013.56 1014.43 1015.22 1015.99 1016.20 1016.48 1016.26 1016.20 1016.50 1016.68 1016.81 1016.61 1016.90 1017.08 1017.51 1017.59 1017.70 1017.99 1017.69 1016.88 1016.00 1015.76 1015.57 1015.61 1015.14 1015.02 1015.00
1004.94 1004.55 1004.67 1005.47 1006.35 1007.36 1007.95 1008.24 1008.50 1008.56 1010.57 1012.30 1012.18 1011.77 1011.77 1012.23 1012.88 1013.03 1012.98 1013.79 1014.92 1015.48 1016.37 1016.33 1015.95 1015.84 1016.49 1016.56 1016.68 1016.87 1016.30 1016.64 1017.40 1018.30 1018.37 1018.55 1017.88 1016.77 1015.94 1015.52 1015.28 1014.69 1014.53 1014.42 1014.33
1004.49 1004.20 1004.14 1005.03 1004.95 1006.62 1007.09 1007.90 1008.59 1008.88 1010.33 1011.49 1011.88 1010.96 1011.47 1011.91 1012.56 1013.21 1012.56 1013.51 1014.33 1014.77 1015.67 1015.47 1015.55 1015.79 1016.05 1015.86 1016.23 1016.54 1016.38 1017.05 1017.76 1018.59 1018.75 1019.01 1018.93 1016.78 1016.30 1015.37 1014.13 1013.58 1013.66 1013.60 1013.62
1003.50 1003.35 1003.82 1004.44 1005.23 1005.87 1006.88 1007.68 1008.53 1009.83 1010.28 1010.90 1010.45 1010.94 1011.47 1011.87 1012.77 1013.38 1013.18 1013.72 1013.67 1014.37 1014.90 1015.12 1015.04 1015.01 1014.92 1015.35 1015.88 1016.47 1017.02 1018.26 1018.98 1019.52 1019.48 1019.04 1019.20 1016.74 1015.75 1014.42 1013.51 1013.07 1013.17 1013.36 1013.99
1002.82 1002.97 1003.62 1003.47 1004.48 1005.48 1006.66 1007.65 1009.33 1009.41 1009.66 1010.17 1010.00 1010.46 1010.68 1011.53 1012.37 1013.23 1013.22 1013.73 1013.48 1013.94 1014.78 1015.23 1015.22 1014.92 1014.82 1015.50 1016.14 1016.17 1017.47 1019.49 1020.36 1020.38 1019.83 1019.04 1018.96 1016.04 1014.29 1013.28 1013.64 1013.28 1013.26 1013.66 1014.26
1002.68 1003.03 1003.12 1003.41 1004.34 1005.18 1007.25 1008.24 1008.57 1007.52 1008.16 1008.50 1009.10 1010.25 1010.71 1011.65 1012.06 1012.91 1013.67 1013.67 1013.34 1012.93 1014.68 1015.21 1015.18 1014.83 1014.39 1014.46 1015.12 1015.96 1016.51 1018.02 1019.77 1021.00 1020.57 1019.63 1018.03 1015.28 1013.19 1012.59 1013.02 1012.89 1013.53 1014.29 1014.96
1003.47 1003.08 1003.40 1003.42 1003.21 1005.02 1007.04 1007.47 1005.78 1005.83 1007.11 1007.42 1008.82 1009.52 1010.23 1010.33 1010.59 1012.63 1012.63 1011.96 1012.08 1012.18 1013.22 1013.93 1014.46 1014.58 1014.37 1014.08 1014.19 1015.77 1016.19 1017.02 1019.10 1020.88 1020.38 1018.63 1017.05 1014.87 1013.09 1012.87 1013.06 1013.30 1014.01 1014.67 1015.14
1003.15 1002.38 1003.03 1002.20 1002.76 1004.65 1005.85 1004.24 1004.79 1004.49 1005.38 1006.45 1007.06 1007.71 1007.77 1009.00 1010.27 1011.61 1011.74 1010.95 1010.76 1011.20 1011.61 1012.60 1014.53 1015.06 1014.72 1014.34 1014.42 1014.31 1015.30 1016.97 1018.36 1019.96 1020.48 1018.66 1017.20 1014.72 1013.31 1013.11 1013.19 1013.61 1014.17 1014.88 1015.39
1003.05 1002.77 1002.72 1003.09 1002.97 1004.47 1003.97 1003.53 1004.00 1003.53 1003.75 1004.88 1005.60 1006.50 1006.83 1007.75 1009.03 1010.21 1010.57 1010.03 1010.23 1010.71 1011.33 1012.23 1013.55 1015.80 1015.23 1014.23 1013.93 1014.67 1014.93 1015.87 1016.86 1018.03 1018.34 1017.98 1015.51 1013.02 1012.46 1012.22 1012.80 1012.94 1013.87 1014.53 1014.97
1002.88 1003.11 1003.08 1002.95 1003.12 1003.24 1003.17 1002.38 1002.62 1002.93 1003.29 1003.72 1004.38 1005.04 1005.31 1007.25 1008.67 1009.70 1009.08 1008.57 1009.00 1009.66 1011.18 1012.26 1014.10 1015.76 1014.96 1014.51 1014.30 1013.96 1014.13 1015.01 1016.21 1017.32 1017.57 1016.76 1013.48 1011.87 1011.78 1011.87 1012.09 1012.33 1013.19 1013.74 1014.43
1003.02 1003.50 1003.35 1002.69 1002.85 1002.91 1002.65 1002.49 1002.33 1002.46 1002.47 1003.02 1003.51 1003.92 1004.84 1006.42 1008.10 1008.16 1008.09 1008.26 1008.69 1009.50 1010.28 1011.89 1013.83 1015.68 1015.91 1015.47 1014.83 1014.42 1014.30 1014.46 1015.40 1016.04 1015.89 1016.05 1011.99 1012.03 1011.64 1011.80 1011.90 1012.21 1012.91 1013.63 1014.66
1003.66 1003.96 1004.07 1004.45 1003.94 1002.95 1002.16 1002.51 1002.06 1001.94 1002.25 1002.50 1002.80 1003.41 1004.78 1006.23 1006.44 1007.27 1007.84 1008.06 1008.72 1009.25 1010.08 1011.50 1012.99 1013.52 1013.85 1013.36 1014.19 1014.80 1014.56 1014.59 1015.05 1015.98 1014.55 1013.44 1011.44 1012.35 1012.11 1011.83 1012.17 1012.48 1012.98 1013.76 1014.50
1003.80 1003.18 1002.93 1004.09 1003.75 1003.10 1002.32 1001.98 1001.67 1001.56 1001.84 1002.55 1002.73 1002.85 1003.60 1005.29 1006.47 1006.41 1007.00 1008.14 1008.70 1009.18 1010.47 1011.61 1013.07 1013.97 1014.04 1013.80 1013.63 1013.69 1013.96 1014.37 1014.67 1012.90 1013.88 1009.66 1011.31 1011.28 1011.70 1011.61 1012.06 1012.57 1013.27 1013.81 1014.32
1003.54 1003.63 1003.59 1002.55 1003.24 1003.19 1002.35 1001.41 1000.66 1000.92 1001.07 1001.76 1002.30 1003.04 1003.32 1003.77 1004.33 1005.46 1006.08 1007.16 1007.76 1009.49 1010.55 1011.74 1012.83 1014.20 1015.14 1014.54 1014.20 1013.98 1013.28 1012.71 1012.03 1012.60 1012.04 1010.84 1009.60 1010.16 1010.25 1011.04 1011.76 1012.47 1012.95 1013.41 1013.80
1003.35 1002.99 1003.49 1002.70 1002.67 1003.04 1001.65 1000.90 999.84 1000.05 1000.91 1001.17 1001.87 1002.64 1003.28 1003.43 1003.83 1004.46 1005.22 1006.18 1006.76 1007.93 1010.00 1011.20 1012.80 1014.98 1015.92 1015.31 1014.72 1013.99 1010.21 1011.93 1011.35 1011.20 1010.15 1010.56 1006.43 1009.96 1010.49 1011.06 1011.46 1011.82 1012.19 1012.69 1012.92
Wind_Speed
22 25 23 22 21 19 18 17 13 12 11 13 13 9 8 7 4 2 7 7 6 7 4 3 3 3 4 3 2 3 4 2 5 7 5 4 5 2 1 7 3 0 7 7 13
20 26 25 24 21 21 21 19 17 13 12 11 12 12 9 7 2 7 6 8 9 8 5 6 2 5 3 2 2 4 4 6 4 5 8 6 6 9 5 4 4 3 5 13 13
17 26 26 25 22 22 21 20 19 16 15 14 13 11 9 4 1 9 17 13 12 10 2 5 4 5 2 1 3 3 5 2 3 2 5 10 7 3 10 3 7 10 13 13 10
16 19 26 24 23 22 21 20 19 19 16 14 12 11 10 3 7 1 3 16 11 6 2 5 4 3 6 7 2 1 4 2 5 6 5 10 8 6 6 7 9 14 20 16 14
12 13 26 24 23 23 22 19 18 19 18 17 12 14 6 4 8 1 2 11 7 7 6 6 5 5 7 5 4 1 3 2 4 6 4 4 5 7 7 1 8 12 11 16 16
13 17 11 23 23 22 22 21 20 18 19 19 18 11 4 6 4 3 5 9 6 6 6 5 7 5 4 2 6 1 3 0 3 2 3 3 2 5 5 5 9 16 15 12 15
16 15 18 23 24 23 23 21 20 17 17 19 19 6 2 9 4 5 7 5 6 6 6 2 3 4 7 2 2 2 4 2 3 2 1 1 1 6 3 5 12 12 12 10 11
17 14 21 25 24 23 22 23 19 18 16 16 14 4 5 1 4 6 3 3 4 2 2 5 4 3 4 4 6 11 3 4 2 4 1 3 9 4 6 9 10 10 9 9 12
14 15 18 22 24 24 23 22 20 17 16 15 4 6 4 5 4 5 6 7 7 1 3 3 3 4 1 7 2 2 6 4 4 6 3 3 7 5 2 9 9 9 9 10 9
14 15 20 21 24 25 26 24 22 17 10 3 2 5 4 6 4 6 3 7 5 6 4 4 4 4 2 4 10 4 3 4 6 7 3 3 8 6 2 7 11 10 8 8 9
15 16 17 19 26 29 27 16 12 4 5 8 11 3 7 5 4 3 5 5 4 5 6 3 5 7 7 6 7 6 6 6 3 3 4 8 7 10 5 4 8 9 9 10 12
15 18 22 23 29 33 20 12 15 10 10 3 6 3 3 3 5 4 7 7 5 6 6 4 6 10 12 9 6 6 5 3 2 1 4 2 11 10 5 8 8 10 10 12 8
15 15 22 24 33 21 18 7 7 14 7 2 5 4 5 5 5 12 13 5 7 7 6 8 9 7 10 6 9 6 6 6 5 2 1 2 8 6 7 6 6 9 13 10 13
17 12 21 22 22 16 14 8 17 3 6 5 5 5 4 5 2 5 9 8 4 13 9 6 7 13 6 7 6 6 7 6 8 6 5 4 7 6 4 8 7 13 14 15 11
19 16 22 29 14 15 16 12 7 3 9 15 6 4 7 11 7 6 4 3 9 8 9 7 9 7 7 7 9 9 7 8 5 3 3 2 2 8 4 7 11 11 12 15 12
21 19 22 16 9 17 12 13 5 5 6 12 11 12 14 7 4 3 6 1 5 6 3 7 2 8 11 4 6 9 8 8 5 2 2 7 6 6 6 9 7 5 7 9 8
16 20 20 10 11 15 11 11 6 10 7 9 11 16 19 8 8 5 16 7 8 9 7 2 4 3 5 7 1 5 8 2 2 2 6 2 3 12 7 10 7 10 8 3 4
15 19 16 10 14 19 11 10 10 15 12 6 13 19 15 21 5 7 15 15 8 6 6 10 6 7 5 8 9 7 9 8 9 6 6 4 7 10 8 8 9 5 3 4 6
11 5 5 14 20 18 17 13 15 18 10 12 17 19 8 17 9 9 17 24 17 9 8 8 3 2 1 4 13 6 6 7 7 3 4 4 6 12 7 9 2 4 4 7 7
4 5 10 13 23 19 15 15 6 11 14 19 11 14 16 25 11 12 18 19 18 11 6 6 5 1 1 3 2 7 9 3 3 5 4 5 5 7 7 8 8 8 9 8 5
3 5 1 4 19 17 21 16 6 7 21 17 8 8 14 19 16 15 15 3 17 13 3 6 5 2 3 8 9 4 5 3 5 6 7 3 8 9 11 12 11 11 8 9 9
2 2 0 8 12 13 16 11 9 8 9 5 7 5 19 21 16 15 19 15 19 21 10 2 6 5 10 1 2 3 7 9 6 5 3 4 10 6 10 10 8 9 10 8 7
3 1 5 3 10 16 12 10 10 11 20 9 7 5 7 19 15 15 13 8 20 20 20 8 2 4 4 5 1 7 3 5 5 3 7 5 8 5 3 2 4 6 5 7 7
1 3 3 2 3 13 12 21 15 5 19 6 7 7 15 14 6 18 10 5 17 11 11 9 4 9 11 6 9 6 7 4 6 1 6 14 11 3 5 6 6 3 4 6 7
2 2 3 5 5 4 13 19 18 13 7 8 2 15 14 11 20 9 10 5 14 17 10 11 6 3 0 4 7 6 10 17 14 26 11 24 14 17 10 10 8 6 5 6 8
2 2 3 5 7 9 12 23 26 18 16 23 8 10 5 9 14 9 11 6 16 6 17 10 3 6 3 5 5 4 18 25 30 19 22 14 23 11 9 6 6 9 9 9 9
1 2 2 11 10 8 10 14 26 26 2 16 15 16 10 6 11 10 8 11 16 22 17 14 9 7 8 5 6 8 24 19 20 18 25 18 36 8 5 8 11 12 11 11 12
Wind_Direction
235 205 199 199 184 180 183 177 182 171 165 163 176 179 173 150 155 192 226 203 197 192 210 169 133 105 63 79 70 100 67 197 215 164 218 183 143 185 71 113 71 72 155 188 160
229 202 197 198 189 182 184 178 168 167 165 167 157 175 161 150 110 248 232 218 216 196 162 169 146 119 73 100 44 100 131 219 221 207 191 179 143 150 111 109 28 39 41 134 148
235 201 197 194 191 183 186 177 165 161 172 167 157 157 152 135 117 244 191 224 192 189 189 162 120 117 75 138 166 175 195 226 276 285 205 160 139 139 126 217 200 173 151 158 165
206 219 198 191 188 185 184 180 164 160 168 165 156 147 141 202 187 217 214 190 189 159 175 161 142 179 148 162 139 210 259 265 314 330 140 169 125 134 172 213 179 170 161 160 175
218 242 197 188 189 184 181 182 170 164 164 158 159 143 149 163 249 320 259 169 147 144 187 174 163 144 151 147 109 164 270 74 307 6 40 126 130 185 219 194 149 138 163 173 181
229 217 226 186 184 182 180 176 170 164 160 159 159 154 162 186 205 132 140 134 172 155 173 188 179 160 125 246 132 187 262 113 320 3 46 137 128 147 238 107 138 155 179 185 185
222 212 205 194 182 177 177 175 161 158 160 159 156 166 186 216 151 128 130 175 166 160 162 203 187 136 134 71 229 282 233 331 242 264 183 152 318 216 144 141 161 177 186 190 201
228 210 198 184 179 176 168 167 153 146 155 150 152 133 214 209 144 129 150 126 157 280 156 180 185 133 161 190 90 195 137 185 249 171 311 108 241 257 188 160 189 189 193 199 205
255 198 190 180 173 169 157 152 136 138 139 132 108 137 226 108 168 185 140 150 126 70 66 113 127 179 109 137 107 22 166 174 282 199 132 161 242 243 194 180 191 206 207 210 216
264 192 190 179 169 157 146 131 126 124 131 144 104 98 175 190 192 147 140 138 128 119 64 127 82 146 75 138 192 161 147 172 204 217 174 189 256 268 275 189 198 207 228 235 230
301 193 187 175 169 149 131 126 132 129 213 192 176 173 148 132 119 134 144 108 94 84 148 191 134 188 191 180 172 173 174 174 231 190 144 209 248 250 253 236 233 234 222 228 230
300 203 185 173 171 147 147 167 177 140 127 237 156 103 105 143 116 159 123 125 125 163 122 82 209 208 184 191 155 153 158 216 307 156 139 213 254 251 242 235 210 226 240 239 234
288 231 191 167 156 151 165 178 154 135 113 123 167 154 158 131 159 182 150 149 148 151 167 160 215 156 181 189 179 190 171 169 197 155 64 339 287 254 256 236 231 239 232 235 224
282 272 189 168 147 160 169 178 170 124 96 189 189 229 125 132 186 179 170 144 161 179 144 197 211 163 176 196 152 195 188 153 145 145 198 149 269 301 261 259 222 239 238 238 227
293 236 187 184 137 175 165 160 152 42 143 149 171 150 153 146 138 233 152 96 165 161 127 233 160 147 183 190 172 220 137 143 141 120 90 311 66 273 274 271 252 240 238 236 231
307 196 188 177 158 169 150 139 82 71 208 184 156 170 152 161 132 103 144 157 155 127 88 192 199 170 183 135 168 148 89 47 56 83 264 199 170 254 212 221 261 280 256 245 233
320 198 197 184 166 145 151 149 105 187 159 171 175 173 170 154 129 194 179 184 170 134 168 145 196 190 148 105 56 128 103 36 3 315 224 159 205 244 251 257 229 258 260 245 172
338 196 210 193 164 135 148 145 176 186 176 139 152 152 174 148 159 170 170 192 244 127 134 172 202 184 178 165 165 177 160 157 182 200 221 116 224 250 242 279 242 263 203 154 153
314 174 190 204 166 149 159 179 198 165 170 139 131 154 160 181 126 144 193 193 190 184 154 150 209 331 173 156 154 199 196 153 105 32 58 230 289 303 261 264 246 204 163 197 197
292 136 221 161 157 154 170 191 158 168 130 146 161 194 168 177 151 182 183 202 191 170 160 181 134 329 159 100 344 194 145 95 0 130 241 255 257 228 265 244 215 209 207 215 196
243 152 127 280 155 166 189 187 167 184 151 164 150 170 168 173 175 191 192 259 192 175 143 124 102 267 153 213 168 141 181 150 134 156 178 199 250 217 205 221 199 227 202 201 203
111 158 74 160 177 181 190 173 160 166 163 168 130 117 175 171 184 201 197 201 188 177 163 102 114 168 199 284 237 245 185 190 169 220 240 165 245 194 216 222 213 225 203 206 207
159 197 20 160 191 184 158 201 181 161 180 159 149 158 153 173 190 203 192 203 174 175 174 171 187 92 42 329 203 219 176 169 106 72 206 144 260 352 130 150 221 217 169 184 174
189 167 26 92 329 191 161 188 175 146 186 170 131 124 145 180 193 190 168 147 175 175 138 128 166 169 189 190 130 175 186 198 134 145 210 233 231 228 225 195 218 175 175 171 185
185 202 146 178 213 223 177 164 181 162 168 185 185 172 158 171 193 183 153 118 167 169 153 157 181 147 233 166 145 164 178 188 204 220 190 246 244 216 213 206 209 212 192 187 205
176 165 273 132 142 180 206 181 184 169 158 194 182 178 176 153 184 154 141 142 170 154 169 183 199 126 255 123 140 174 200 201 212 209 241 251 280 126 203 196 177 203 204 211 218
188 98 319 172 168 181 210 193 192 174 95 191 186 175 191 187 153 161 155 164 159 173 180 169 127 171 216 163 104 286 214 204 218 206 221 228 241 115 156 187 213 225 208 209 221